Weather History for Barrow, AK

Change the Weather History Date:

Tuesday, February 19, 2013

  Actual Average Record
Temperature  
Mean Temperature -26 °F -14 °F  
Max Temperature -20 °F -8 °F 30 °F (2006)
Min Temperature -32 °F -20 °F -54 °F (1964)
Degree Days  
Heating Degree Days 91 79  
Month to date heating degree days 1619 1501  
Since 1 July heating degree days 11261 12137  
Cooling Degree Days 0    
Month to date cooling degree days 0  
Year to date cooling degree days 0  
Moisture  
Dew Point -31 °F    
Average Humidity 0    
Maximum Humidity 0    
Minimum Humidity 0    
Precipitation  
Precipitation 0.00 in 0.01 in 0.15 in (2010)
Month to date precipitation T 0.10  
Year to date precipitation 0.06 0.23  
Snow  
Snow 0.00 in 0.10 in 3.00 in (2010)
Month to date snowfall 0.4 1.8  
Since 1 July snowfall 41.7 28.2  
Snow Depth 6.00 in    
Sea Level Pressure  
Sea Level Pressure 30.54 in    
Wind  
Wind Speed 11 mph (ENE)    
Max Wind Speed 17 mph    
Max Gust Speed 23 mph    
Visibility 7 miles    
Events      
T = Trace of Precipitation, MM = Missing Value Source: NWS Daily Summary

Daily Weather History Graph

Daily Weather History Graph

Search for Another Location

Airport:

Trip Planner

Search our weather history database for the weather conditions in past years. The results will help you decide how hot, cold, wet, or windy it might be!

Date:

Astronomy

Feb. 19, 2013 Rise Set
Actual Time 9:48 AM AKST 5:35 PM AKST
Civil Twilight 8:37 AM AKST 6:46 PM AKST
Nautical Twilight 7:21 AM AKST 8:02 PM AKST
Astronomical Twilight 6:05 AM AKST 9:19 PM AKST
Moon No Moon Rise No Moon Set
Length of Visible Light 10h 09m
Length of Day
7h 46m
Waxing Gibbous, 69% of the Moon is Illuminated
Feb 19
Waxing Gibbous
Feb 25
Full
Mar 4
Last Quarter
Mar 11
New
Mar 19
First Quarter

Hourly Weather History & Observations

Time (AKST) Temp. Windchill Dew Point Humidity Pressure Visibility Wind Dir Wind Speed Gust Speed Precip Events Conditions
12:53 AM -29.0 °F -43.8 °F -35.0 °F 73% 30.65 in 9.0 mi Variable 4.6 mph - N/A   Scattered Clouds
1:53 AM -29.9 °F -44.8 °F - N/A% 30.63 in 9.0 mi Variable 4.6 mph - N/A   Partly Cloudy
2:53 AM -31.0 °F -43.3 °F - N/A% 30.63 in 9.0 mi Variable 3.5 mph - N/A   Clear
3:53 AM -29.9 °F -49.0 °F - N/A% 30.63 in 9.0 mi ENE 6.9 mph - N/A   Clear
4:53 AM -27.9 °F -48.2 °F -35.0 °F 69% 30.63 in 9.0 mi ENE 8.1 mph - N/A   Clear
5:53 AM -29.9 °F -53.4 °F - N/A% 30.61 in 9.0 mi ENE 10.4 mph - N/A   Clear
6:53 AM -29.9 °F -49.0 °F - N/A% 30.59 in 9.0 mi Variable 6.9 mph - N/A   Clear
7:53 AM -29.0 °F -52.3 °F -35.0 °F 73% 30.59 in 9.0 mi ENE 10.4 mph - N/A   Clear
8:53 AM -29.0 °F -52.3 °F -35.0 °F 73% 30.57 in 9.0 mi ENE 10.4 mph - N/A   Clear
9:53 AM -29.9 °F -54.6 °F - N/A% 30.55 in 9.0 mi ENE 11.5 mph - N/A   Clear
10:32 AM -29.2 °F -53.7 °F -36.4 °F 68% 30.54 in 2.5 mi ENE 11.5 mph - N/A   Haze
10:40 AM -29.2 °F -53.7 °F -34.6 °F 75% 30.54 in 10.0 mi ENE 11.5 mph - N/A   Clear
10:53 AM -27.9 °F -52.1 °F -34.1 °F 73% 30.54 in 10.0 mi ENE 11.5 mph - N/A   Clear
11:53 AM -27.0 °F -52.1 °F -34.1 °F 69% 30.54 in 10.0 mi ENE 12.7 mph - N/A   Clear
12:53 PM -25.1 °F -48.5 °F -32.1 °F 70% 30.55 in 9.0 mi ENE 11.5 mph - N/A   Clear
1:53 PM -24.0 °F -47.2 °F -29.9 °F 74% 30.54 in 8.0 mi ENE 11.5 mph - N/A   Clear
3:53 PM -23.1 °F -46.0 °F -29.0 °F 74% 30.51 in 9.0 mi ENE 11.5 mph - N/A   Clear
4:53 PM -23.1 °F -49.8 °F -29.9 °F 70% 30.50 in 9.0 mi ENE 16.1 mph - N/A   Partly Cloudy
5:53 PM -25.1 °F -51.5 °F -31.0 °F 74% 30.49 in 9.0 mi ENE 15.0 mph - N/A   Partly Cloudy
6:53 PM -24.0 °F -48.2 °F -29.9 °F 74% 30.49 in 5.0 mi ENE 12.7 mph - N/A   Partly Cloudy
7:53 PM -23.1 °F -49.8 °F -29.0 °F 74% 30.45 in 3.0 mi ENE 16.1 mph - N/A   Partly Cloudy
8:25 PM -20.2 °F -46.8 °F -27.4 °F 69% 30.44 in 2.0 mi ENE 17.3 mph - N/A   Partly Cloudy
8:53 PM -20.9 °F -47.7 °F -27.0 °F 73% 30.44 in 1.0 mi ENE 17.3 mph - N/A   Mostly Cloudy
9:53 PM -20.9 °F -46.2 °F -27.0 °F 73% 30.43 in 1.5 mi ENE 15.0 mph - N/A   Mostly Cloudy
10:53 PM -20.9 °F -44.3 °F -27.9 °F 70% 30.43 in 1.2 mi ENE 12.7 mph - N/A   Mostly Cloudy
11:53 PM -20.9 °F -47.0 °F -27.9 °F 70% 30.42 in 2.0 mi ENE 16.1 mph - N/A   Mostly Cloudy